Location: Hilton Head Island
(32.2163°N, 80.7526°W)
Time: 11:29:18
(UTC-04:00)

S-56A Canister/Altair - Pass Details

Date: 21 February 2026
Orbit: 633 x 2484 km, 38.9° (Epoch: 10 March)

Event Time Altitude Azimuth Distance (km) Brightness Sun altitude
Exits shadow 04:05:58 74° 177° (S) 1,745 9.0 -37.3°
Drops below altitude 10° 04:17:54 10° 125° (SE) 4,712 12.0 -34.8°
Sets 04:22:05 0° 124° (SE) 5,902 12.6 -33.9°
